sat.trackr.live / text

‹ back to catalog

STARLINK-34522

NORAD 64492 · 2025-133W

PAYLOAD ACTIVE UNKNOWN

§ Identity

Operator
Country
US
Launch date
2025-06-23
Launch site
AFETR
Launch vehicle
Mass (kg)
RCS (m²)

Purposes: comms

External: N2YO · Heavens-Above · Gunter

§ Orbital elements

Epoch: 2026-09-20T19:05:40.976160Z

Period
93.85 min
Inclination
53.1592°
Eccentricity
0.0001240
Mean motion
15.34407071 rev/d
Perigee alt
461.8 km
Apogee alt
463.5 km
Semi-major
6,840.8 km
B*
5.2590e-4
RAAN
284.6117°
Arg perigee
90.3458°
Mean anomaly
269.7687°
Rev number
7,114

§ Raw data

STARLINK-345221 64492U 25133W   26263.79561315  .00017437  00000+0  52590-3 0  99902 64492  53.1592 284.6117 0001240  90.3458 269.7687 15.34407071 71147

JSON: /api/v1/satellites/64492 · /tle

For live sub-satellite position, see the globe view (requires WebGL).

§ Visibility from observer

Set your observer location to see the next 7 days of passes ≥ 10°. The values pass through the URL so the page stays shareable.

No JS? Fill the form by hand. The geolocation button needs JavaScript.